Weather History for Waukesha, WI

Change the Weather History Date:

Wednesday, March 19, 2014

  Actual Average Record
Temperature  
Mean Temperature 34 °F -  
Max Temperature 35 °F 43 °F 73 °F (1976)
Min Temperature 32 °F 28 °F 3 °F (1965)
Degree Days  
Heating Degree Days 32    
Moisture  
Dew Point 31 °F    
Average Humidity 90    
Maximum Humidity 100    
Minimum Humidity 69    
Precipitation  
Precipitation 0.02 in - - ()
Sea Level Pressure  
Sea Level Pressure 29.72 in    
Wind  
Wind Speed 8 mph (WNW)    
Max Wind Speed 22 mph    
Max Gust Speed 30 mph    
Visibility 5 miles    
Events Fog , Rain , Snow    
Averages and records for this station are not official NWS values.
T = Trace of Precipitation, MM = Missing Value Source: NWS Daily Summary

Daily Weather History Graph

Daily Weather History Graph

Search for Another Location

Airport:

Trip Planner

Search our weather history database for the weather conditions in past years. The results will help you decide how hot, cold, wet, or windy it might be!

Date:

Astronomy

Mar. 19, 2014 Rise Set
Actual Time 6:57 AM CDT 7:04 PM CDT
Civil Twilight 6:29 AM CDT 7:32 PM CDT
Nautical Twilight 5:56 AM CDT 8:05 PM CDT
Astronomical Twilight 5:22 AM CDT 8:39 PM CDT
Moon 10:28 PM CDT (3/19) 8:18 AM CDT (3/19)
Length of Visible Light 13h 02m
Length of Day
12h 06m
Waning Gibbous, 91% of the Moon is Illuminated
Mar 19
Waning Gibbous
Mar 23
Last Quarter
Mar 30
New
Apr 7
First Quarter
Apr 15
Full

Hourly Weather History & Observations

Time (CDT) Temp. Windchill Dew Point Humidity Pressure Visibility Wind Dir Wind Speed Gust Speed Precip Events Conditions
12:15 AM 33.8 °F 26.4 °F 32.0 °F 93% 29.70 in 7.0 mi East 9.2 mph - N/A   Overcast
12:35 AM 33.8 °F 25.8 °F 32.0 °F 93% 29.70 in 5.0 mi East 10.4 mph 16.1 mph N/A   Overcast
12:55 AM 33.8 °F 27.7 °F 32.0 °F 93% 29.68 in 4.0 mi East 6.9 mph - N/A   Light Drizzle
1:15 AM 33.8 °F 27.7 °F 32.0 °F 93% 29.67 in 4.0 mi ESE 6.9 mph - N/A   Light Drizzle
1:35 AM 33.8 °F 28.6 °F 32.0 °F 93% 29.66 in 2.5 mi ESE 5.8 mph - N/A   Drizzle
1:55 AM 33.8 °F 29.6 °F 32.0 °F 93% 29.65 in 1.5 mi ESE 4.6 mph - 0.01 in Rain Rain
2:15 AM 33.8 °F - 32.0 °F 93% 29.64 in 1.8 mi Calm Calm - N/A Rain Rain
2:35 AM 33.8 °F - 32.0 °F 93% 29.63 in 1.2 mi Calm Calm - N/A Rain Rain
2:55 AM 33.8 °F - 33.8 °F 100% 29.62 in 1.2 mi Calm Calm - 0.01 in Rain Light Rain
3:15 AM 33.8 °F - 33.8 °F 100% 29.61 in 1.0 mi Calm Calm - N/A   Light Drizzle
3:35 AM 33.8 °F - 33.8 °F 100% 29.61 in 0.8 mi Calm Calm - N/A Rain Rain
3:55 AM 33.8 °F - 33.8 °F 100% 29.60 in 1.0 mi Calm Calm - N/A   Drizzle
4:15 AM 33.8 °F - 33.8 °F 100% 29.59 in 0.8 mi Calm Calm - N/A   Light Drizzle
4:35 AM 33.8 °F - 33.8 °F 100% 29.59 in 0.8 mi Calm Calm - N/A Rain Light Rain
4:55 AM 33.8 °F - 33.8 °F 100% 29.59 in 0.8 mi Calm Calm - N/A   Light Drizzle
5:15 AM 33.8 °F - 33.8 °F 100% 29.58 in 0.8 mi Calm Calm - N/A   Light Drizzle
5:35 AM 33.8 °F - 33.8 °F 100% 29.58 in 0.8 mi Calm Calm - N/A   Light Drizzle
5:45 AM 33.8 °F 25.8 °F 33.8 °F 100% 29.57 in 0.5 mi ESE 10.4 mph - N/A Rain Light Rain
8:45 AM 35.6 °F - 33.8 °F 93% 29.59 in 0.8 mi Calm Calm - N/A Fog Fog
9:45 AM 33.8 °F 25.8 °F 33.8 °F 100% 29.61 in 0.5 mi West 10.4 mph - N/A   Light Drizzle
10:45 AM 32.0 °F 23.0 °F 32.0 °F 100% 29.63 in 0.8 mi WNW 11.5 mph - N/A Fog Fog
11:45 AM 32.0 °F 23.0 °F 32.0 °F 100% 29.65 in 1.5 mi WNW 11.5 mph 23.0 mph N/A Fog Fog
12:45 PM 32.0 °F 21.6 °F 32.0 °F 100% 29.67 in 4.0 mi WNW 15.0 mph - N/A Snow Light Snow
1:45 PM 33.8 °F 23.2 °F 32.0 °F 93% 29.69 in 5.0 mi WNW 17.3 mph - N/A   Overcast
2:45 PM 35.6 °F 26.6 °F 32.0 °F 87% 29.71 in 5.0 mi WNW 13.8 mph - N/A   Overcast
3:45 PM 35.6 °F 25.9 °F 33.8 °F 93% 29.74 in 7.0 mi West 16.1 mph 20.7 mph N/A   Overcast
4:45 PM 35.6 °F 25.9 °F 32.0 °F 87% 29.77 in 7.0 mi West 16.1 mph 25.3 mph N/A   Overcast
5:45 PM 33.8 °F 23.5 °F 30.2 °F 87% 29.80 in 7.0 mi West 16.1 mph 25.3 mph N/A   Overcast
6:45 PM 33.8 °F 22.5 °F 28.4 °F 81% 29.83 in 10.0 mi West 19.6 mph 28.8 mph N/A   Overcast
7:45 PM 32.0 °F 20.5 °F 28.4 °F 87% 29.86 in 10.0 mi West 18.4 mph 25.3 mph N/A   Overcast
8:45 PM 32.0 °F 19.5 °F 26.6 °F 80% 29.88 in 10.0 mi West 21.9 mph 26.5 mph N/A   Overcast
9:15 PM 32.0 °F 19.5 °F 26.6 °F 80% 29.89 in 10.0 mi WNW 21.9 mph 29.9 mph N/A   Overcast
9:35 PM 32.0 °F 19.8 °F 26.6 °F 80% 29.90 in 10.0 mi West 20.7 mph 29.9 mph N/A   Overcast
9:55 PM 32.0 °F 19.5 °F 24.8 °F 75% 29.90 in 10.0 mi WNW 21.9 mph 26.5 mph N/A   Overcast
10:15 PM 32.0 °F 20.1 °F 24.8 °F 75% 29.91 in 10.0 mi WNW 19.6 mph 26.5 mph N/A   Overcast
10:35 PM 32.0 °F 22.1 °F 24.8 °F 75% 29.92 in 10.0 mi WNW 13.8 mph 25.3 mph N/A   Overcast
10:55 PM 32.0 °F 20.8 °F 24.8 °F 75% 29.92 in 10.0 mi WNW 17.3 mph 20.7 mph N/A   Overcast
11:15 PM 32.0 °F 23.6 °F 24.8 °F 75% 29.93 in 10.0 mi West 10.4 mph - N/A   Overcast
11:35 PM 32.0 °F 21.6 °F 24.8 °F 75% 29.93 in 10.0 mi WNW 15.0 mph 21.9 mph N/A   Overcast
11:55 PM 32.0 °F 22.1 °F 23.0 °F 69% 29.93 in 10.0 mi West 13.8 mph 21.9 mph N/A   Overcast